Location: Newark
(54.6833°N, 25.2833°E)
Time: 06:05:08
(UTC+00:00)

Tiros 1 despin weight - Pass Details

Date: 26 November 2019
Orbit: 594 x 642 km, 48.2° (Epoch: 08 December)

Event Time Altitude Azimuth Distance (km) Brightness Sun altitude
Rises 12:50:35 0° 266° (W) 2,831 ? 6.6°
Reaches altitude 10° 12:53:04 10° 256° (WSW) 1,930 ? 6.4°
Maximum altitude 12:56:54 29° 195° (SSW) 1,094 ? 6.0°
Drops below altitude 10° 13:00:45 10° 135° (SE) 1,940 ? 5.7°
Sets 13:03:15 0° 125° (SE) 2,848 ? 5.4°
